GIA609 WAFF-WAAA

Flight info

Callsign GIA609
Flight time 0h 54m
Altitude 31000
Route NIVEK
Aircraft B77W/H-SDE1E2E3FGHIJ2J3J4J5M1RWXY/LB1D1

Departure

Time 2026-04-21 16:02
Airport Mutiara - SIS Al-Jufrie Airport (WAFF)

Arrival

Time 2026-04-21 16:57
Airport Sultan Hasanuddin International Airport (WAAA)
Time Latitude Longitude Altitude Speed Heading
2026-04-21 15:49 -0.91863 119.90730 269 ft 0 kts 175°
2026-04-21 15:58 -0.91880 119.90734 269 ft 6 kts 177°
2026-04-21 15:59 -0.91911 119.90758 268 ft 8 kts 100°
2026-04-21 15:59 -0.91910 119.90822 268 ft 12 kts 73°
2026-04-21 15:59 -0.91880 119.90897 269 ft 12 kts 68°
2026-04-21 15:59 -0.91886 119.90974 269 ft 12 kts 130°
2026-04-21 16:00 -0.91994 119.91026 265 ft 26 kts 158°
2026-04-21 16:00 -0.92152 119.91097 260 ft 25 kts 155°
2026-04-21 16:00 -0.92315 119.91173 253 ft 27 kts 155°
2026-04-21 16:00 -0.92463 119.91248 250 ft 14 kts 144°
2026-04-21 16:01 -0.92513 119.91256 250 ft 3 kts 230°
2026-04-21 16:01 -0.92493 119.91230 251 ft 6 kts
2026-04-21 16:01 -0.92447 119.91224 250 ft 9 kts 340°
2026-04-21 16:01 -0.92113 119.91078 262 ft 111 kts 336°
2026-04-21 16:02 -0.91045 119.90596 426 ft 212 kts 336°
2026-04-21 16:02 -0.89605 119.89936 1676 ft 246 kts 336°
2026-04-21 16:02 -0.87949 119.89189 2728 ft 267 kts 337°
2026-04-21 16:02 -0.86250 119.88409 3841 ft 272 kts 337°
2026-04-21 16:03 -0.84509 119.87586 4866 ft 280 kts 337°
2026-04-21 16:03 -0.82735 119.86745 5964 ft 285 kts 337°
2026-04-21 16:03 -0.80931 119.85892 7019 ft 288 kts 337°
2026-04-21 16:03 -0.79107 119.85032 8072 ft 292 kts 336°
2026-04-21 16:04 -0.77258 119.84164 9160 ft 295 kts 336°
2026-04-21 16:04 -0.75388 119.83289 10171 ft 299 kts 336°
2026-04-21 16:04 -0.73448 119.82382 10763 ft 320 kts 336°
2026-04-21 16:04 -0.71354 119.81368 10985 ft 347 kts 330°
2026-04-21 16:05 -0.69552 119.79659 11360 ft 371 kts 302°
2026-04-21 16:05 -0.68672 119.77216 12160 ft 380 kts 277°
2026-04-21 16:05 -0.68768 119.74570 13113 ft 385 kts 258°
2026-04-21 16:05 -0.69658 119.72053 14049 ft 388 kts 240°
2026-04-21 16:06 -0.71263 119.69879 14880 ft 391 kts 225°
2026-04-21 16:06 -0.73420 119.68215 15693 ft 395 kts 210°
2026-04-21 16:06 -0.75854 119.66913 16477 ft 400 kts 205°
2026-04-21 16:06 -0.78385 119.65711 17262 ft 405 kts 204°
2026-04-21 16:07 -0.80960 119.64522 18081 ft 410 kts 204°
2026-04-21 16:07 -0.83561 119.63308 18793 ft 415 kts 204°
2026-04-21 16:07 -0.85288 119.62485 19254 ft 417 kts 205°
2026-04-21 16:07 -0.88809 119.60773 20171 ft 424 kts 205°
2026-04-21 16:08 -0.93248 119.58567 21258 ft 433 kts 205°
2026-04-21 16:08 -0.95958 119.57204 21885 ft 438 kts 205°
2026-04-21 16:08 -0.98690 119.55827 22559 ft 442 kts 205°
2026-04-21 16:09 -1.01454 119.54431 23194 ft 447 kts 205°
2026-04-21 16:09 -1.04247 119.53022 23772 ft 451 kts 205°
2026-04-21 16:09 -1.07055 119.51604 24383 ft 453 kts 205°
2026-04-21 16:09 -1.09875 119.50180 24999 ft 455 kts 205°
2026-04-21 16:10 -1.12709 119.48750 25593 ft 458 kts 205°
2026-04-21 16:10 -1.15562 119.47310 26100 ft 461 kts 205°
2026-04-21 16:10 -1.18440 119.45858 26666 ft 465 kts 205°
2026-04-21 16:10 -1.21335 119.44397 27241 ft 467 kts 205°
2026-04-21 16:11 -1.24246 119.42929 27826 ft 470 kts 205°
2026-04-21 16:11 -1.27165 119.41456 28510 ft 470 kts 206°
2026-04-21 16:11 -1.30072 119.39989 29335 ft 466 kts 206°
2026-04-21 16:11 -1.32960 119.38531 30141 ft 464 kts 206°
2026-04-21 16:12 -1.35841 119.37078 30736 ft 465 kts 206°
2026-04-21 16:12 -1.38721 119.35624 30895 ft 463 kts 206°
2026-04-21 16:12 -1.41594 119.34175 30888 ft 461 kts 206°
2026-04-21 16:13 -1.47309 119.31291 30889 ft 460 kts 206°
2026-04-21 16:13 -1.53023 119.28408 30890 ft 461 kts 206°
2026-04-21 16:14 -1.58712 119.25537 30892 ft 462 kts 206°
2026-04-21 16:14 -1.64450 119.22642 30885 ft 462 kts 206°
2026-04-21 16:15 -1.70195 119.19742 30888 ft 463 kts 206°
2026-04-21 16:15 -1.75943 119.16841 30885 ft 463 kts 206°
2026-04-21 16:16 -1.81688 119.13941 30881 ft 462 kts 206°
2026-04-21 16:16 -1.87428 119.11043 30881 ft 462 kts 206°
2026-04-21 16:17 -1.93163 119.08148 30878 ft 461 kts 206°
2026-04-21 16:17 -1.98888 119.05258 30880 ft 461 kts 206°
2026-04-21 16:18 -2.04608 119.02369 30879 ft 460 kts 206°
2026-04-21 16:18 -2.10323 118.99484 30882 ft 460 kts 206°
2026-04-21 16:19 -2.16037 118.96598 30878 ft 460 kts 206°
2026-04-21 16:19 -2.21753 118.93711 30885 ft 460 kts 206°
2026-04-21 16:20 -2.27463 118.90827 30877 ft 460 kts 206°
2026-04-21 16:20 -2.33178 118.87940 30881 ft 460 kts 206°
2026-04-21 16:21 -2.38891 118.85054 30886 ft 460 kts 206°
2026-04-21 16:21 -2.44609 118.82165 30887 ft 460 kts 206°
2026-04-21 16:22 -2.50324 118.79276 30884 ft 460 kts 206°
2026-04-21 16:22 -2.56040 118.76387 30885 ft 460 kts 206°
2026-04-21 16:23 -2.61718 118.73517 30880 ft 460 kts 206°
2026-04-21 16:23 -2.67661 118.71417 30884 ft 454 kts 182°
2026-04-21 16:23 -2.70795 118.71617 30889 ft 450 kts 171°
2026-04-21 16:24 -2.73904 118.72074 30895 ft 453 kts 171°
2026-04-21 16:24 -2.80188 118.72955 30893 ft 459 kts 171°
2026-04-21 16:25 -2.86541 118.73797 30894 ft 462 kts 172°
2026-04-21 16:25 -2.92920 118.74618 30889 ft 462 kts 172°
2026-04-21 16:26 -2.99286 118.75433 30887 ft 460 kts 172°
2026-04-21 16:26 -3.05620 118.76245 30883 ft 458 kts 172°
2026-04-21 16:27 -3.11926 118.77054 30883 ft 456 kts 172°
2026-04-21 16:27 -3.18209 118.77861 30889 ft 455 kts 172°
2026-04-21 16:28 -3.24480 118.78666 30900 ft 454 kts 172°
2026-04-21 16:28 -3.30751 118.79472 30897 ft 455 kts 172°
2026-04-21 16:29 -3.37039 118.80280 30894 ft 456 kts 172°
2026-04-21 16:29 -3.43345 118.81090 30895 ft 458 kts 172°
2026-04-21 16:30 -3.49668 118.81903 30891 ft 459 kts 172°
2026-04-21 16:30 -3.56005 118.82717 30891 ft 459 kts 172°
2026-04-21 16:31 -3.62350 118.83532 30890 ft 460 kts 172°
2026-04-21 16:31 -3.68691 118.84347 30883 ft 459 kts 171°
2026-04-21 16:32 -3.75021 118.85161 30881 ft 458 kts 171°
2026-04-21 16:32 -3.81289 118.85967 30879 ft 456 kts 171°
2026-04-21 16:33 -3.87581 118.86777 30877 ft 455 kts 171°
2026-04-21 16:33 -3.93861 118.87584 30877 ft 455 kts 171°
2026-04-21 16:34 -4.00131 118.88391 30883 ft 454 kts 171°
2026-04-21 16:34 -4.06408 118.89199 30886 ft 456 kts 171°
2026-04-21 16:35 -4.12600 118.89995 30856 ft 436 kts 171°
2026-04-21 16:35 -4.15565 118.90376 30750 ft 426 kts 171°
2026-04-21 16:35 -4.18495 118.90754 30369 ft 423 kts 171°
2026-04-21 16:35 -4.21418 118.91055 29974 ft 421 kts 176°
2026-04-21 16:36 -4.24345 118.91122 29492 ft 420 kts 179°
2026-04-21 16:36 -4.27257 118.91082 29028 ft 418 kts 180°
2026-04-21 16:36 -4.30153 118.91020 28574 ft 415 kts 180°
2026-04-21 16:36 -4.33035 118.90969 28125 ft 413 kts 179°
2026-04-21 16:37 -4.35899 118.90937 27687 ft 411 kts 179°
2026-04-21 16:37 -4.38752 118.90921 27260 ft 409 kts 179°
2026-04-21 16:37 -4.41589 118.90914 26823 ft 407 kts 179°
2026-04-21 16:37 -4.44414 118.90913 26395 ft 405 kts 179°
2026-04-21 16:38 -4.47230 118.90914 25970 ft 404 kts 179°
2026-04-21 16:38 -4.50033 118.90915 25537 ft 403 kts 179°
2026-04-21 16:38 -4.52833 118.90916 25103 ft 402 kts 179°
2026-04-21 16:38 -4.55625 118.90916 24672 ft 401 kts 179°
2026-04-21 16:39 -4.58415 118.90916 24240 ft 401 kts 179°
2026-04-21 16:39 -4.61201 118.90917 23811 ft 400 kts 179°
2026-04-21 16:39 -4.63982 118.90917 23372 ft 400 kts 179°
2026-04-21 16:39 -4.66762 118.90917 22880 ft 399 kts 179°
2026-04-21 16:40 -4.69527 118.90916 22432 ft 397 kts 179°
2026-04-21 16:40 -4.72280 118.90916 22005 ft 395 kts 179°
2026-04-21 16:40 -4.75022 118.90916 21566 ft 393 kts 179°
2026-04-21 16:40 -4.77748 118.90916 21141 ft 391 kts 179°
2026-04-21 16:41 -4.79547 118.90916 20865 ft 390 kts 179°
2026-04-21 16:41 -4.83167 118.90916 20298 ft 388 kts 179°
2026-04-21 16:41 -4.85861 118.90916 19865 ft 387 kts 178°
2026-04-21 16:41 -4.88549 118.90916 19442 ft 386 kts 178°
2026-04-21 16:42 -4.91196 118.90916 19016 ft 385 kts 178°
2026-04-21 16:42 -4.93913 118.90916 18568 ft 385 kts 178°
2026-04-21 16:42 -4.96554 118.90916 18143 ft 385 kts 178°
2026-04-21 16:42 -4.99228 118.90917 17658 ft 384 kts 178°
2026-04-21 16:43 -5.01896 118.90916 17209 ft 382 kts 178°
2026-04-21 16:43 -5.04553 118.90916 16777 ft 380 kts 178°
2026-04-21 16:43 -5.07191 118.90916 16352 ft 379 kts 178°
2026-04-21 16:43 -5.09821 118.90916 15924 ft 377 kts 178°
2026-04-21 16:44 -5.12437 118.90916 15473 ft 376 kts 178°
2026-04-21 16:44 -5.15054 118.90917 15021 ft 376 kts 178°
2026-04-21 16:44 -5.17664 118.90916 14590 ft 374 kts 178°
2026-04-21 16:44 -5.20265 118.90916 14161 ft 373 kts 178°
2026-04-21 16:45 -5.22851 118.90937 13733 ft 366 kts 174°
2026-04-21 16:45 -5.25282 118.91547 13263 ft 359 kts 152°
2026-04-21 16:45 -5.27270 118.93005 12856 ft 353 kts 131°
2026-04-21 16:45 -5.28649 118.95014 12434 ft 349 kts 115°
2026-04-21 16:46 -5.29455 118.97281 11993 ft 337 kts 99°
2026-04-21 16:46 -5.29577 118.99529 11663 ft 311 kts 89°
2026-04-21 16:46 -5.29550 119.01656 11317 ft 303 kts 89°
2026-04-21 16:46 -5.29517 119.03774 10962 ft 304 kts 89°
2026-04-21 16:47 -5.29488 119.05898 10636 ft 304 kts 89°
2026-04-21 16:47 -5.29465 119.07994 10270 ft 294 kts 89°
2026-04-21 16:47 -5.29447 119.09992 9854 ft 279 kts 89°
2026-04-21 16:47 -5.29434 119.11860 9485 ft 265 kts 89°
2026-04-21 16:48 -5.29422 119.13727 9176 ft 271 kts 89°
2026-04-21 16:48 -5.29412 119.15627 8831 ft 274 kts 89°
2026-04-21 16:48 -5.29402 119.17541 8477 ft 274 kts 89°
2026-04-21 16:48 -5.29394 119.19453 8143 ft 274 kts 89°
2026-04-21 16:49 -5.29385 119.21365 7805 ft 274 kts 89°
2026-04-21 16:49 -5.29377 119.23278 7463 ft 275 kts 89°
2026-04-21 16:49 -5.29369 119.25194 7127 ft 275 kts 89°
2026-04-21 16:49 -5.29361 119.27116 6792 ft 275 kts 89°
2026-04-21 16:50 -5.29353 119.29036 6446 ft 276 kts 89°
2026-04-21 16:50 -5.29346 119.30908 6074 ft 260 kts 89°
2026-04-21 16:50 -5.29338 119.32678 5747 ft 250 kts 89°
2026-04-21 16:50 -5.29330 119.34461 5465 ft 262 kts 89°
2026-04-21 16:51 -5.29322 119.36315 5140 ft 268 kts 89°
2026-04-21 16:51 -5.29314 119.38191 4809 ft 269 kts 89°
2026-04-21 16:51 -5.29306 119.40069 4465 ft 270 kts 89°
2026-04-21 16:51 -5.29090 119.41909 4118 ft 263 kts 69°
2026-04-21 16:52 -5.28084 119.43402 3894 ft 259 kts 44°
2026-04-21 16:52 -5.26613 119.44422 3631 ft 257 kts 30°
2026-04-21 16:52 -5.25587 119.45002 3458 ft 255 kts 30°
2026-04-21 16:52 -5.23531 119.46174 3093 ft 252 kts 30°
2026-04-21 16:53 -5.22055 119.47016 2774 ft 235 kts 30°
2026-04-21 16:53 -5.20689 119.47799 2491 ft 219 kts 30°
2026-04-21 16:53 -5.19417 119.48531 2254 ft 202 kts 30°
2026-04-21 16:53 -5.18253 119.49201 2013 ft 182 kts 30°
2026-04-21 16:54 -5.17218 119.49797 1819 ft 164 kts 30°
2026-04-21 16:54 -5.16272 119.50342 1600 ft 150 kts 30°
2026-04-21 16:54 -5.15378 119.50857 1444 ft 148 kts 30°
2026-04-21 16:54 -5.14480 119.51374 1256 ft 149 kts 30°
2026-04-21 16:55 -5.13885 119.51718 1125 ft 148 kts 30°
2026-04-21 16:55 -5.13001 119.52227 1039 ft 149 kts 30°
2026-04-21 16:55 -5.12082 119.52756 743 ft 153 kts 31°
2026-04-21 16:55 -5.11177 119.53282 514 ft 148 kts 32°
2026-04-21 16:56 -5.10291 119.53799 312 ft 148 kts 32°
2026-04-21 16:56 -5.09394 119.54311 123 ft 148 kts 30°
2026-04-21 16:56 -5.08514 119.54817 46 ft 138 kts 30°
2026-04-21 16:56 -5.07862 119.55193 46 ft 50 kts 30°
2026-04-21 16:57 -5.07707 119.55221 47 ft 22 kts 321°
2026-04-21 16:57 -5.07623 119.55092 46 ft 22 kts 300°
2026-04-21 16:57 -5.07598 119.54961 46 ft 19 kts 243°
2026-04-21 16:57 -5.07702 119.54881 46 ft 12 kts 211°
2026-04-21 16:58 -5.07736 119.54813 46 ft 13 kts 288°
2026-04-21 16:58 -5.07715 119.54775 46 ft 0 kts 301°